Poquito

operational
NORAD ID: 62691 Int'l Des: NNA 2025-009 Owner: ULUX Country: L
LEOCIRCULARRETROGRADESSO

Poquitoについて

説明を読み込み中...

リアルタイム位置

3D地球を読み込み中...

次回通過

高度履歴

Altitude vs Time

uPlot chart will show altitude changes over time

軌道要素

1 62691U 25009CL 26062.15455561 .00040355 00000-0 10695-2 0 9998
2 62691 97.3831 146.0875 0002595 215.8124 144.2948 15.38225559 62850
Epoch: Mar 3, 2026 • Age: 30 hours

現在のステータス

高度 463.3 km
速度 7.63 km/s
衛星直下点 -30.17°S, 102.31°W
打ち上げ日 Jan 14, 2025
運用期間 1.1 years
タイプ other

技術仕様

分類 Payload
質量 0.25 kg
乾燥質量 0.25 kg
総質量 0.25 kg
長さ 0.05 m
直径 0.05 m
スパン 0.05 m
形状 Box
製造者 ULUX
バスタイプ PocketQube 1P
フェーズステータス In Orbit
所有者/国 ULUX/L

大規模コンステレーション

Loading constellations...